GW1031 Weather Reports


Display with metric or nautical units.
time (UTC)temp
F
wind
direction
speed
MPH
gust
MPH
rain 1hr
in
rain 24hr
in
rain mn
in
humidity
%
barometer
mb
20260510231001 80 269 2.0 2.0 0.00 0.00 0.00 17 1020.2
20260510230456 81 71 1.0 1.0 0.00 0.00 0.00 17 1019.9
20260510225953 82 45 1.0 2.0 0.00 0.00 0.00 15 1020.1
20260510225450 81 74 1.0 1.0 0.00 0.00 0.00 20 1020.2
20260510224945 81 248 1.0 1.0 0.00 0.00 0.00 15 1019.9
20260510224442 82 201 2.0 3.0 0.00 0.00 0.00 13 1019.9
20260510223938 82 264 0.0 1.0 0.00 0.00 0.00 14 1019.9
20260510223436 81 167 0.0 0.0 0.00 0.00 0.00 18 1020.1
20260510222933 81 238 0.0 1.0 0.00 0.00 0.00 18 1020.1
20260510222431 82 248 0.0 1.0 0.00 0.00 0.00 16 1020.3
20260510221926 81 260 2.0 2.0 0.00 0.00 0.00 15 1020.3
20260510221422 80 357 0.0 1.0 0.00 0.00 0.00 16 1020.3
20260510220919 81 179 0.0 0.0 0.00 0.00 0.00 20 1020.3
20260510220415 81 198 3.0 6.0 0.00 0.00 0.00 14 1020.2
20260510215911 80 45 1.0 1.0 0.00 0.00 0.00 18 1020.2
20260510215409 81 68 1.0 2.0 0.00 0.00 0.00 18 1020.3
20260510214907 81 203 1.0 2.0 0.00 0.00 0.00 13 1020.7
20260510214403 81 196 2.0 2.0 0.00 0.00 0.00 13 1020.2
20260510213900 81 49 1.0 1.0 0.00 0.00 0.00 14 1020.6
20260510213356 81 169 0.0 1.0 0.00 0.00 0.00 17 1020.6
20260510212847 80 117 4.0 6.0 0.00 0.00 0.00 12 1020.7
20260510212344 80 209 3.0 3.0 0.00 0.00 0.00 14 1020.9
20260510211841 80 269 1.0 1.0 0.00 0.00 0.00 13 1020.7
20260510211337 79 128 2.0 2.0 0.00 0.00 0.00 14 1020.7
20260510210832 79 104 3.0 3.0 0.00 0.00 0.00 16 1020.9
20260510210328 79 62 1.0 1.0 0.00 0.00 0.00 18 1020.8
20260510205822 80 266 2.0 3.0 0.00 0.00 0.00 14 1020.8
20260510205317 80 275 1.0 1.0 0.00 0.00 0.00 13 1020.7
20260510204814 80 30 1.0 1.0 0.00 0.00 0.00 17 1020.9
20260510204310 80 229 1.0 1.0 0.00 0.00 0.00 18 1020.9
20260510203807 79 246 1.0 1.0 0.00 0.00 0.00 13 1021.0
20260510203305 79 134 0.0 1.0 0.00 0.00 0.00 14 1020.7
20260510202804 79 120 2.0 3.0 0.00 0.00 0.00 15 1020.7
20260510202300 78 254 3.0 3.0 0.00 0.00 0.00 15 1020.9
20260510201757 78 312 5.0 6.0 0.00 0.00 0.00 13 1021.0
20260510201254 78 159 1.0 1.0 0.00 0.00 0.00 13 1021.3
20260510200751 79 80 1.0 1.0 0.00 0.00 0.00 12 1020.7
20260510200249 79 190 1.0 1.0 0.00 0.00 0.00 13 1021.0
20260510195745 78 214 1.0 1.0 0.00 0.00 0.00 14 1020.9
20260510195242 78 119 1.0 2.0 0.00 0.00 0.00 12 1020.8
20260510194740 78 335 1.0 2.0 0.00 0.00 0.00 17 1021.2
20260510194238 78 311 1.0 1.0 0.00 0.00 0.00 17 1020.9
20260510193734 78 221 1.0 1.0 0.00 0.00 0.00 13 1021.0
20260510193228 78 276 2.0 2.0 0.00 0.00 0.00 16 1020.9
20260510192724 77 147 2.0 2.0 0.00 0.00 0.00 16 1021.0
20260510192220 78 189 1.0 2.0 0.00 0.00 0.00 15 1020.9
20260510191716 77 101 1.0 2.0 0.00 0.00 0.00 17 1021.0
20260510191213 77 284 3.0 3.0 0.00 0.00 0.00 16 1021.2
20260510190710 77 226 0.0 1.0 0.00 0.00 0.00 16 1020.9
20260510190207 77 115 1.0 1.0 0.00 0.00 0.00 19 1021.2
20260510185704 77 231 2.0 2.0 0.00 0.00 0.00 15 1020.9
20260510185202 76 274 0.0 1.0 0.00 0.00 0.00 21 1021.2
20260510184658 76 313 2.0 3.0 0.00 0.00 0.00 17 1021.4
20260510184154 76 19 1.0 1.0 0.00 0.00 0.00 15 1021.3
20260510183650 75 209 2.0 2.0 0.00 0.00 0.00 15 1021.4
20260510183145 76 166 1.0 2.0 0.00 0.00 0.00 14 1021.4
20260510182642 75 113 0.0 1.0 0.00 0.00 0.00 17 1021.5
20260510182137 75 310 3.0 5.0 0.00 0.00 0.00 18 1021.8
20260510181635 74 158 0.0 1.0 0.00 0.00 0.00 17 1021.8
20260510181131 74 85 0.0 1.0 0.00 0.00 0.00 19 1021.4
20260510180627 73 100 2.0 3.0 0.00 0.00 0.00 18 1021.5
20260510180125 73 302 1.0 1.0 0.00 0.00 0.00 23 1021.8
20260510175621 73 293 0.0 1.0 0.00 0.00 0.00 22 1021.5
20260510175116 73 81 2.0 2.0 0.00 0.00 0.00 19 1021.7
20260510174615 73 98 1.0 2.0 0.00 0.00 0.00 18 1021.8
20260510174112 73 138 1.0 2.0 0.00 0.00 0.00 19 1021.7
20260510173607 72 256 2.0 2.0 0.00 0.00 0.00 19 1021.8
20260510173104 72 298 3.0 3.0 0.00 0.00 0.00 20 1021.7
20260510172600 72 313 2.0 3.0 0.00 0.00 0.00 19 1021.7
20260510172056 72 233 3.0 5.0 0.00 0.00 0.00 19 1021.5
20260510171553 72 261 1.0 1.0 0.00 0.00 0.00 19 1021.7
20260510171050 71 283 1.0 2.0 0.00 0.00 0.00 19 1021.5
20260510170546 71 83 1.0 1.0 0.00 0.00 0.00 19 1021.5
20260510170043 71 300 1.0 2.0 0.00 0.00 0.00 19 1021.3
20260510165539 71 97 1.0 1.0 0.00 0.00 0.00 18 1021.3
20260510165035 70 161 2.0 2.0 0.00 0.00 0.00 18 1021.3
20260510164532 69 136 0.0 0.0 0.00 0.00 0.00 23 1021.3
20260510164028 69 95 3.0 3.0 0.00 0.00 0.00 21 1021.2
20260510163518 68 96 0.0 0.0 0.00 0.00 0.00 28 1021.3
20260510163015 68 127 0.0 1.0 0.00 0.00 0.00 22 1021.3
20260510162510 68 99 1.0 2.0 0.00 0.00 0.00 25 1021.5
20260510162007 69 83 1.0 2.0 0.00 0.00 0.00 23 1021.3
20260510161503 68 126 1.0 1.0 0.00 0.00 0.00 23 1021.3
20260510160959 68 247 0.0 0.0 0.00 0.00 0.00 23 1021.3
20260510160451 67 74 0.0 0.0 0.00 0.00 0.00 23 1021.4
20260510155949 66 189 0.0 0.0 0.00 0.00 0.00 25 1021.5
20260510155447 66 80 2.0 2.0 0.00 0.00 0.00 24 1021.5
20260510154943 66 100 2.0 2.0 0.00 0.00 0.00 26 1021.8
20260510154439 66 128 0.0 0.0 0.00 0.00 0.00 26 1021.5
20260510153938 66 111 1.0 2.0 0.00 0.00 0.00 28 1021.5
20260510153435 65 145 0.0 0.0 0.00 0.00 0.00 22 1021.7
20260510152931 64 91 1.0 2.0 0.00 0.00 0.00 25 1021.7
20260510152429 63 131 0.0 0.0 0.00 0.00 0.00 30 1021.9
20260510151925 61 79 0.0 0.0 0.00 0.00 0.00 31 1021.7
20260510151422 61 124 1.0 1.0 0.00 0.00 0.00 28 1021.9
20260510150918 60 115 0.0 0.0 0.00 0.00 0.00 30 1021.9
20260510150414 58 152 0.0 0.0 0.00 0.00 0.00 32 1022.0
20260510145911 56 111 0.0 0.0 0.00 0.00 0.00 36 1022.1
20260510145407 55 89 0.0 0.0 0.00 0.00 0.00 34 1022.1
20260510144904 55 94 2.0 2.0 0.00 0.00 0.00 32 1022.3
20260510144401 54 96 1.0 2.0 0.00 0.00 0.00 34 1022.1
20260510143855 55 99 3.0 3.0 0.00 0.00 0.00 36 1022.1
20260510143351 57 154 0.0 0.0 0.00 0.00 0.00 40 1022.4
20260510142849 56 114 0.0 0.0 0.00 0.00 0.00 42 1022.5
20260510142345 54 148 0.0 0.0 0.00 0.00 0.00 44 1022.3
20260510141842 52 125 0.0 0.0 0.00 0.00 0.00 48 1022.3
20260510141339 51 103 0.0 1.0 0.00 0.00 0.00 46 1022.5
20260510140836 49 113 0.0 0.0 0.00 0.00 0.00 53 1022.4
20260510140332 48 130 1.0 1.0 0.00 0.00 0.00 52 1022.5
20260510135831 48 92 1.0 2.0 0.00 0.00 0.00 51 1022.4
20260510135327 47 125 0.0 0.0 0.00 0.00 0.00 59 1022.4
20260510134825 46 97 0.0 1.0 0.00 0.00 0.00 59 1022.3
20260510134322 44 150 0.0 0.0 0.00 0.00 0.00 57 1022.4
20260510133818 43 151 0.0 0.0 0.00 0.00 0.00 60 1022.4
20260510133314 41 97 0.0 0.0 0.00 0.00 0.00 67 1022.1
20260510132809 37 125 0.0 0.0 0.00 0.00 0.00 77 1022.0
20260510132308 36 138 0.0 0.0 0.00 0.00 0.00 76 1022.0
20260510131804 36 146 0.0 0.0 0.00 0.00 0.00 79 1022.0
20260510131302 35 135 0.0 0.0 0.00 0.00 0.00 85 1022.1
20260510130758 34 129 0.0 0.0 0.00 0.00 0.00 84 1021.9
20260510130255 33 151 0.0 0.0 0.00 0.00 0.00 85 1021.9
20260510125752 32 129 0.0 0.0 0.00 0.00 0.00 88 1022.1
20260510125248 32 152 0.0 0.0 0.00 0.00 0.00 88 1021.5
20260510124745 32 151 0.0 0.0 0.00 0.00 0.00 89 1021.9
20260510124242 32 148 0.0 0.0 0.00 0.00 0.00 88 1021.9
20260510123737 32 155 0.0 0.0 0.00 0.00 0.00 90 1021.8
20260510123234 31 186 0.0 0.0 0.00 0.00 0.00 89 1021.9
20260510122730 31 183 0.0 0.0 0.00 0.00 0.00 88 1021.9
20260510122226 31 175 0.0 0.0 0.00 0.00 0.00 88 1021.5
20260510121723 31 175 0.0 0.0 0.00 0.00 0.00 88 1021.4
20260510121220 31 186 0.0 0.0 0.00 0.00 0.00 88 1021.5
20260510120718 31 184 0.0 0.0 0.00 0.00 0.00 88 1021.7
20260510120214 32 181 0.0 0.0 0.00 0.00 0.00 86 1021.7
20260510115710 32 181 0.0 0.0 0.00 0.00 0.00 85 1021.3
20260510115208 32 169 0.0 0.0 0.00 0.00 0.00 85 1021.5
20260510114703 32 166 0.0 0.0 0.00 0.00 0.00 86 1021.3
20260510114200 32 149 0.0 0.0 0.00 0.00 0.00 87 1021.3
20260510113655 32 148 0.0 0.0 0.00 0.00 0.00 86 1020.9
20260510113152 32 145 0.0 0.0 0.00 0.00 0.00 85 1021.2
20260510112643 33 180 0.0 0.0 0.00 0.00 0.00 84 1021.0
20260510112140 33 181 0.0 0.0 0.00 0.00 0.00 84 1021.0
20260510111636 33 181 0.0 0.0 0.00 0.00 0.00 85 1021.4
20260510111132 33 182 0.0 0.0 0.00 0.00 0.00 83 1021.2
20260510110627 33 181 0.0 0.0 0.00 0.00 0.00 83 1021.0
20260510110125 33 191 0.0 0.0 0.00 0.00 0.00 84 1021.0
20260510105621 33 173 0.0 0.0 0.00 0.00 0.00 87 1020.9
20260510105115 33 157 0.0 0.0 0.00 0.00 0.00 87 1020.8
20260510104612 33 165 0.0 0.0 0.00 0.00 0.00 86 1021.0
20260510104109 33 174 0.0 0.0 0.00 0.00 0.00 84 1020.7
20260510103606 33 178 0.0 0.0 0.00 0.00 0.00 84 1020.8
20260510103102 34 174 0.0 0.0 0.00 0.00 0.00 83 1021.0
20260510102557 34 177 0.0 0.0 0.00 0.00 0.00 82 1020.7
20260510102053 33 189 0.0 0.0 0.00 0.00 0.00 82 1021.2
20260510101551 34 171 0.0 0.0 0.00 0.00 0.00 85 1020.6
20260510101050 34 152 0.0 0.0 0.00 0.00 0.00 82 1020.7
20260510100545 34 155 0.0 0.0 0.00 0.00 0.00 81 1020.8
20260510100043 34 126 0.0 0.0 0.00 0.00 0.00 80 1020.6
20260510095539 35 174 0.0 0.0 0.00 0.00 0.00 81 1020.8
20260510095038 35 188 0.0 0.0 0.00 0.00 0.00 80 1020.4
20260510094533 35 137 0.0 0.0 0.00 0.00 0.00 83 1020.7
20260510094028 35 208 0.0 0.0 0.00 0.00 0.00 84 1020.7
20260510093524 36 183 0.0 0.0 0.00 0.00 0.00 80 1020.4
20260510093021 36 134 0.0 0.0 0.00 0.00 0.00 81 1020.7
20260510092519 36 228 0.0 1.0 0.00 0.00 0.00 79 1020.3
20260510092018 36 142 0.0 0.0 0.00 0.00 0.00 79 1020.3
20260510091515 37 188 0.0 0.0 0.00 0.00 0.00 76 1020.4
20260510091011 37 140 0.0 0.0 0.00 0.00 0.00 76 1020.2
20260510090509 36 236 0.0 0.0 0.00 0.00 0.00 75 1019.9
20260510090004 36 241 1.0 1.0 0.00 0.00 0.00 77 1020.4
20260510085459 36 146 0.0 0.0 0.00 0.00 0.00 79 1020.2
20260510084955 37 158 0.0 0.0 0.00 0.00 0.00 77 1019.8
20260510084452 36 170 0.0 0.0 0.00 0.00 0.00 76 1020.1
20260510083949 37 170 0.0 0.0 0.00 0.00 0.00 77 1019.7
20260510083445 37 198 0.0 0.0 0.00 0.00 0.00 77 1019.9
20260510082940 38 125 0.0 0.0 0.00 0.00 0.00 76 1019.9
20260510082439 37 128 0.0 0.0 0.00 0.00 0.00 77 1019.8
20260510081938 37 199 0.0 0.0 0.00 0.00 0.00 78 1019.6
20260510081434 37 223 0.0 0.0 0.00 0.00 0.00 78 1019.7
20260510080930 37 232 0.0 0.0 0.00 0.00 0.00 79 1019.7
20260510080429 38 116 0.0 0.0 0.00 0.00 0.00 81 1019.9
20260510075926 38 184 0.0 0.0 0.00 0.00 0.00 75 1019.8
20260510075424 38 204 0.0 0.0 0.00 0.00 0.00 76 1019.7
20260510074920 38 141 0.0 0.0 0.00 0.00 0.00 79 1019.7
20260510074418 39 112 0.0 0.0 0.00 0.00 0.00 78 1019.8
20260510073914 38 199 0.0 0.0 0.00 0.00 0.00 79 1019.9
20260510073409 38 154 0.0 0.0 0.00 0.00 0.00 81 1019.8
20260510072906 39 150 0.0 0.0 0.00 0.00 0.00 81 1019.7
20260510072403 39 169 0.0 0.0 0.00 0.00 0.00 75 1019.9
20260510071858 39 204 0.0 0.0 0.00 0.00 0.00 76 1019.9
20260510071355 39 243 0.0 0.0 0.00 0.00 0.00 76 1020.1
20260510070854 40 187 0.0 0.0 0.00 0.00 0.00 76 1019.9
20260510070350 40 95 0.0 0.0 0.00 0.00 0.00 77 1019.9
20260510065850 41 124 0.0 0.0 0.00 0.00 0.00 77 1019.8
20260510065347 41 129 0.0 0.0 0.00 0.00 0.00 75 1019.7
20260510064844 40 226 1.0 1.0 0.00 0.00 0.00 73 1019.8
20260510064342 40 204 0.0 0.0 0.00 0.00 0.00 78 1020.1
20260510063838 40 204 0.0 0.0 0.00 0.00 0.00 79 1020.1
20260510063334 41 135 0.0 0.0 0.00 0.00 0.00 79 1019.8
20260510062831 41 131 0.0 0.0 0.00 0.00 0.00 77 1019.6
20260510062327 40 170 0.0 0.0 0.00 0.00 0.00 79 1019.7
20260510061822 41 158 0.0 0.0 0.00 0.00 0.00 80 1019.8
20260510061320 41 157 0.0 0.0 0.00 0.00 0.00 78 1019.6
20260510060815 41 166 0.0 0.0 0.00 0.00 0.00 80 1019.7
20260510060313 42 166 0.0 0.0 0.00 0.00 0.00 82 1019.7
20260510055809 42 141 0.0 0.0 0.00 0.00 0.00 80 1019.9
20260510055308 42 165 0.0 0.0 0.00 0.00 0.00 79 1019.6
20260510054807 42 156 0.0 0.0 0.00 0.00 0.00 81 1019.6
20260510054303 43 156 0.0 0.0 0.00 0.00 0.00 76 1019.6
20260510053758 43 192 0.0 0.0 0.00 0.00 0.00 70 1019.3
20260510053254 42 197 0.0 0.0 0.00 0.00 0.00 73 1019.6
20260510052750 43 197 0.0 0.0 0.00 0.00 0.00 73 1019.5
20260510052246 44 197 0.0 0.0 0.00 0.00 0.00 71 1019.6
20260510051742 43 150 0.0 0.0 0.00 0.00 0.00 73 1019.3
20260510051239 44 135 0.0 0.0 0.00 0.00 0.00 73 1019.6
20260510050736 44 122 0.0 0.0 0.00 0.00 0.00 75 1019.3
20260510050233 44 134 0.0 0.0 0.00 0.00 0.00 72 1019.3
20260510045730 44 198 0.0 0.0 0.00 0.00 0.00 71 1019.6
20260510045226 45 187 0.0 0.0 0.00 0.00 0.00 73 1019.6
20260510044723 45 113 0.0 0.0 0.00 0.00 0.00 74 1019.3
20260510044221 45 204 0.0 0.0 0.00 0.00 0.00 68 1019.2
20260510043716 45 155 0.0 0.0 0.00 0.00 0.00 69 1019.1
20260510043213 45 154 0.0 0.0 0.00 0.00 0.00 74 1019.5
20260510042710 46 147 0.0 0.0 0.00 0.00 0.00 73 1018.7
20260510042206 46 133 0.0 0.0 0.00 0.00 0.00 71 1019.1
20260510041703 46 179 0.0 0.0 0.00 0.00 0.00 67 1019.1
20260510041201 47 188 0.0 0.0 0.00 0.00 0.00 63 1019.1
20260510040657 46 177 0.0 0.0 0.00 0.00 0.00 68 1018.8
20260510040154 46 140 0.0 0.0 0.00 0.00 0.00 69 1019.0
20260510035649 47 108 0.0 0.0 0.00 0.00 0.00 69 1018.7
20260510035145 47 148 0.0 0.0 0.00 0.00 0.00 67 1018.7
20260510034642 48 129 0.0 0.0 0.00 0.00 0.00 69 1018.7
20260510034139 49 127 0.0 0.0 0.00 0.00 0.00 66 1018.7
20260510033635 49 181 0.0 0.0 0.00 0.00 0.00 60 1018.5
20260510033133 49 175 0.0 0.0 0.00 0.00 0.00 60 1018.5
20260510032629 49 175 0.0 0.0 0.00 0.00 0.00 60 1018.4
20260510032125 50 177 0.0 0.0 0.00 0.00 0.00 58 1018.4
20260510031620 50 177 0.0 0.0 0.00 0.00 0.00 62 1018.4
20260510031117 51 160 0.0 0.0 0.00 0.00 0.00 59 1018.4
20260510030611 52 154 0.0 0.0 0.00 0.00 0.00 61 1018.2
20260510030109 51 150 0.0 0.0 0.00 0.00 0.00 54 1018.0
20260510025606 51 176 0.0 0.0 0.00 0.00 0.00 64 1017.9
20260510025104 51 112 0.0 0.0 0.00 0.00 0.00 58 1017.9
20260510024600 51 183 0.0 0.0 0.00 0.00 0.00 57 1017.8
20260510024056 52 183 0.0 0.0 0.00 0.00 0.00 64 1017.3
20260510023553 53 170 0.0 0.0 0.00 0.00 0.00 60 1017.6
20260510023050 53 215 0.0 0.0 0.00 0.00 0.00 57 1017.5
20260510022549 54 137 0.0 0.0 0.00 0.00 0.00 63 1017.4
20260510022044 55 175 0.0 0.0 0.00 0.00 0.00 58 1017.1
20260510021540 55 142 0.0 0.0 0.00 0.00 0.00 60 1017.5
20260510021038 56 160 0.0 0.0 0.00 0.00 0.00 57 1017.3
20260510020532 56 174 0.0 0.0 0.00 0.00 0.00 52 1017.3
20260510020028 57 157 0.0 0.0 0.00 0.00 0.00 57 1017.0
20260510015524 57 158 0.0 0.0 0.00 0.00 0.00 55 1017.1
20260510015020 58 127 0.0 0.0 0.00 0.00 0.00 58 1016.9
20260510014517 59 132 0.0 0.0 0.00 0.00 0.00 54 1016.7
20260510014014 60 147 0.0 0.0 0.00 0.00 0.00 48 1017.1
20260510013509 61 144 0.0 0.0 0.00 0.00 0.00 46 1017.0
20260510013005 61 220 0.0 0.0 0.00 0.00 0.00 42 1017.0
20260510012459 61 196 0.0 0.0 0.00 0.00 0.00 42 1017.1
20260510011955 61 185 0.0 0.0 0.00 0.00 0.00 43 1016.9
20260510011449 61 175 0.0 0.0 0.00 0.00 0.00 42 1017.0
20260510010945 63 165 0.0 0.0 0.00 0.00 0.00 47 1017.0
20260510010443 64 152 0.0 0.0 0.00 0.00 0.00 43 1016.9
20260510005940 65 153 0.0 0.0 0.00 0.00 0.00 36 1016.8
20260510005436 66 161 0.0 0.0 0.00 0.00 0.00 31 1016.9
20260510004933 66 99 0.0 0.0 0.00 0.00 0.00 34 1017.0
20260510004430 67 118 0.0 1.0 0.00 0.00 0.00 32 1016.8
20260510003929 67 78 1.0 1.0 0.00 0.00 0.00 30 1017.0
20260510003425 68 244 2.0 2.0 0.00 0.00 0.00 31 1016.9
20260510002924 68 60 1.0 2.0 0.00 0.00 0.00 31 1017.1
20260510002422 68 112 0.0 1.0 0.00 0.00 0.00 33 1017.3
20260510001918 68 135 1.0 1.0 0.00 0.00 0.00 32 1017.3
20260510001416 68 132 1.0 1.0 0.00 0.00 0.00 34 1017.3
20260510000913 68 102 1.0 1.0 0.00 0.00 0.00 32 1017.4
20260510000411 68 86 1.0 2.0 0.00 0.00 0.00 32 1017.0
20260509235905 69 297 0.0 0.0 0.00 0.00 0.00 33 1017.1
20260509235403 69 171 0.0 0.0 0.00 0.00 0.00 30 1017.0
20260509234858 68 101 1.0 1.0 0.00 0.00 0.00 31 1017.5
20260509234356 69 105 0.0 2.0 0.00 0.00 0.00 31 1017.4
20260509233854 69 75 2.0 3.0 0.00 0.00 0.00 31 1017.4
20260509233351 69 101 2.0 3.0 0.00 0.00 0.00 32 1017.1
20260509232846 68 72 1.0 2.0 0.00 0.00 0.00 29 1018.0
20260509232345 67 105 2.0 3.0 0.00 0.00 0.00 29 1017.8
20260509231840 67 36 1.0 1.0 0.00 0.00 0.00 29 1017.8
20260509231338 67 26 2.0 3.0 0.00 0.00 0.00 29 1017.9